Location: Hohe Wand Wildgehege
(47.8330°N, 16.0440°E)
Time: 02:39:31
(UTC+02:00)

X-37B - Visible Passes

Search period start: 18 June 2021 00:00
Search period end: 28 June 2021 00:00
Orbit: 386 x 389 km, 45.0° (Epoch: 10 June)

Date Brightness Start Highest point End Pass type
(mag) Time Alt. Az. Time Alt. Az. Time Alt. Az.
18 Jun 0.7 02:48:20 30° SW 02:49:32 50° S 02:52:38 10° E visible
19 Jun 1.7 01:52:21 30° ESE 01:52:21 30° ESE 01:54:18 10° E visible
19 Jun 0.9 03:24:38 10° W 03:27:40 45° S 03:30:44 10° ESE visible
20 Jun 0.7 02:28:47 42° SW 02:29:23 50° S 02:32:28 10° ESE visible
20 Jun 1.6 04:02:56 10° W 04:05:42 27° SSW 04:08:27 10° SE visible
21 Jun 2.7 01:33:13 18° ESE 01:33:13 18° ESE 01:34:10 10° E visible
21 Jun 1.1 03:05:32 18° WSW 03:07:28 36° SSW 03:10:26 10° SE visible
22 Jun 2.0 02:10:41 25° SE 02:10:41 25° SE 02:12:15 10° ESE visible
22 Jun 2.0 03:43:04 10° WSW 03:45:25 19° SSW 03:47:46 10° SSE visible
22 Jun 2.6 21:57:13 10° S 21:58:29 12° SSE 21:58:53 12° SE visible
23 Jun 2.9 02:49:38 12° SE 02:49:38 12° SE 02:49:59 10° SE visible
23 Jun 1.6 22:33:35 10° SW 22:36:18 26° SSE 22:37:46 18° ESE visible
24 Jun 2.9 00:09:31 10° WSW 00:10:08 15° WSW 00:10:08 15° WSW visible
24 Jun 2.1 21:35:50 10° SSW 21:38:07 18° SSE 21:40:24 10° ESE visible
24 Jun 0.8 23:11:16 10° WSW 23:14:19 44° S 23:15:11 34° SE visible
25 Jun 1.2 22:13:06 10° SW 22:16:02 35° SSE 22:19:00 10° E visible
25 Jun 1.0 23:49:20 10° W 23:51:53 43° SW 23:51:53 43° SW visible
26 Jun 0.7 22:51:02 10° WSW 22:54:08 50° S 22:56:01 20° ESE visible
27 Jun 2.9 00:27:34 10° W 00:28:17 15° WSW 00:28:17 15° WSW visible
27 Jun 0.9 21:52:48 10° WSW 21:55:51 44° S 21:58:54 10° E visible
27 Jun 0.9 23:29:12 10° W 23:32:15 45° S 23:32:17 45° S visible
